Wind_Speed
67 70 73 76 81 84 84 82 80 79 77 76 77 79 82 85 86 85 85 84 84 84 84 84 84 84 85 87 90 93 95 96 97 98 98 98 99 100 101 99 90 78 64 52 47 49 49 49 51 55 59 62 62 61 61 59 59 58 61 69 79 91 99 95 89 87 84 84 83 80 80 79 78 79 77 76 79 77 72 73 74 72 71 70 71
69 72 75 79 83 84 81 79 78 77 77 77 78 81 83 85 86 85 84 84 84 84 84 84 85 86 88 91 94 96 98 99 100 99 100 101 103 103 100 93 81 67 55 47 46 47 48 48 49 51 55 59 61 62 62 61 60 59 62 69 79 90 99 95 89 89 86 84 85 82 80 80 79 79 80 82 83 83 80 78 75 75 76 75 75
71 75 78 82 84 82 78 77 77 76 76 77 79 82 84 85 85 84 83 84 84 84 84 85 86 88 91 94 96 98 100 101 102 102 103 105 104 102 95 83 69 57 48 45 44 46 47 48 49 51 53 56 58 60 61 62 62 61 63 70 79 89 99 98 93 92 87 83 86 85 80 81 80 78 81 86 86 86 87 82 74 72 75 75 75
74 78 81 84 83 79 77 76 76 76 77 78 80 83 84 84 84 84 83 83 84 84 85 86 87 90 93 96 98 100 101 102 104 105 105 105 102 96 84 69 57 49 45 44 44 44 46 47 48 50 53 55 57 60 61 62 64 63 64 72 80 89 99 101 98 95 89 83 85 85 80 82 84 80 80 85 87 88 90 87 78 71 67 66 69
78 81 83 83 81 77 76 76 76 77 77 79 81 82 83 84 83 83 83 84 84 85 86 87 89 92 96 99 100 101 103 104 106 105 103 100 94 85 71 57 49 45 43 43 43 44 46 46 47 50 53 54 56 58 60 62 65 66 66 72 81 89 98 103 101 97 93 88 85 83 80 82 85 84 82 82 85 88 89 88 84 78 68 62 65
81 82 83 82 78 76 76 76 77 77 78 79 80 81 82 82 82 82 83 84 84 85 87 89 91 95 98 100 101 103 105 105 104 101 96 90 82 71 58 48 44 42 41 42 43 43 45 46 47 50 52 53 53 56 58 61 65 67 67 72 82 89 97 103 102 98 95 91 86 82 81 82 82 83 85 84 83 86 88 85 83 82 75 68 67
81 82 82 80 77 76 76 77 77 78 78 78 79 80 81 81 81 82 83 84 85 86 88 90 93 97 99 100 102 105 105 103 99 93 85 78 69 59 50 44 42 40 38 40 41 42 45 46 47 50 52 51 51 53 55 59 65 69 69 73 81 88 95 103 104 98 94 93 89 84 82 84 83 83 86 87 83 82 84 82 80 81 80 74 71
82 82 81 78 76 76 77 77 78 78 77 78 79 80 80 80 81 82 83 85 86 88 90 92 95 98 100 102 104 106 103 97 89 81 72 65 58 51 46 43 39 37 35 37 39 41 44 46 47 50 53 51 50 52 54 58 66 70 71 74 81 87 94 102 104 98 92 93 92 87 84 84 85 86 86 86 85 83 83 81 79 80 78 72 71
82 82 79 77 76 76 77 78 79 78 77 78 79 79 79 80 80 82 83 85 87 89 91 94 97 99 101 104 105 104 98 88 77 68 61 56 51 47 45 41 36 34 33 35 38 41 44 46 47 51 54 53 53 54 55 59 67 71 72 75 81 86 92 101 103 96 91 92 93 91 87 83 86 89 86 83 84 84 82 81 79 77 73 69 68
82 81 78 76 76 76 77 78 79 78 77 77 78 78 79 79 80 82 84 86 88 90 93 96 98 100 103 105 104 100 90 75 65 60 55 52 48 45 44 39 33 32 34 35 39 42 45 46 48 52 54 56 57 58 59 62 68 72 73 76 81 85 91 101 103 94 88 90 93 93 89 84 88 92 87 81 82 82 81 80 79 77 74 70 68
81 80 77 76 76 76 78 79 79 78 77 77 78 78 79 79 80 82 84 86 89 91 94 96 98 101 103 103 101 93 78 64 59 56 52 50 47 44 41 36 31 32 36 39 42 46 47 47 49 52 54 57 59 60 61 65 70 73 74 76 79 83 91 101 101 91 85 89 92 93 90 87 89 91 85 81 80 79 79 80 80 79 77 73 69
80 78 76 76 76 77 78 78 78 78 77 77 77 78 79 79 81 82 85 87 90 93 95 97 99 102 102 100 95 83 67 59 57 54 50 49 46 42 38 34 32 33 38 43 46 48 46 46 48 50 52 54 57 60 63 67 72 74 74 75 76 81 93 102 99 89 86 89 91 93 91 88 89 88 82 80 80 79 80 79 77 76 76 75 70
79 77 76 76 76 77 78 78 78 77 77 77 77 78 79 80 81 83 85 88 91 93 96 98 100 101 100 97 89 73 59 56 56 52 49 47 42 39 36 34 34 36 40 46 47 45 42 44 47 48 49 52 56 60 65 69 73 73 73 73 75 83 96 102 97 88 86 87 89 93 93 90 88 84 79 78 78 77 78 77 74 72 73 72 68
78 77 76 76 76 76 77 78 77 77 77 77 78 79 80 81 82 84 87 89 92 94 96 98 99 99 97 92 79 63 55 56 55 51 48 43 39 37 35 34 36 39 43 44 42 38 38 41 44 44 47 52 57 62 66 70 72 72 72 72 75 87 100 102 95 86 84 86 88 93 95 90 84 80 77 77 76 74 74 72 70 69 69 68 65
78 77 76 76 76 76 77 77 77 77 77 77 78 79 80 81 82 84 87 90 92 95 97 98 98 97 94 85 69 56 54 56 53 49 45 41 37 36 34 34 36 40 43 40 35 34 36 38 40 44 49 54 59 63 66 68 69 69 70 71 77 93 103 100 92 84 82 86 89 91 94 91 83 76 73 73 73 72 69 65 64 64 65 65 65
79 77 76 75 75 76 77 76 76 77 77 77 78 79 81 82 83 85 88 90 93 96 97 97 96 94 88 76 60 53 55 55 50 46 42 39 37 35 33 34 37 41 41 36 31 32 34 35 40 46 51 55 60 62 64 66 66 66 67 70 82 99 104 96 88 81 80 87 91 92 93 93 87 78 74 73 72 70 68 66 66 66 66 66 67
79 78 76 75 75 76 76 76 76 77 77 77 78 79 81 82 83 86 88 91 94 96 97 96 94 89 81 68 55 52 55 54 48 43 40 38 37 35 34 36 38 40 38 33 30 31 31 34 43 49 52 55 58 60 62 63 64 65 65 72 90 104 101 91 83 79 81 88 93 93 92 92 88 82 78 76 74 73 75 74 71 70 68 68 68
79 77 75 74 75 76 76 76 76 77 77 77 78 79 81 82 84 86 88 92 94 95 95 93 89 83 74 63 53 51 53 51 46 41 38 37 37 35 36 38 39 38 35 31 30 30 31 37 46 49 51 54 54 56 59 60 62 64 65 77 97 103 95 86 79 76 81 89 93 94 92 89 89 86 82 79 77 78 80 76 71 70 70 69 69
78 76 74 74 75 75 75 76 76 77 77 78 78 79 81 82 84 86 89 92 94 94 93 90 84 75 66 59 54 52 50 47 43 40 38 37 38 37 38 40 38 34 32 29 29 30 32 40 47 48 49 50 51 54 58 59 61 63 69 85 101 101 92 84 76 73 81 88 89 90 87 83 85 85 81 78 77 78 79 76 71 72 72 69 68
76 74 73 74 74 75 75 76 76 76 76 77 78 79 81 83 84 86 89 92 93 93 91 86 78 68 61 58 56 52 48 42 39 39 38 38 40 40 39 40 36 31 29 29 28 30 34 41 46 46 46 47 50 53 57 59 61 64 75 93 104 101 92 84 74 73 82 86 85 87 86 83 82 81 77 76 76 77 78 76 74 74 73 70 69
75 73 73 73 74 75 75 75 76 76 76 77 78 80 81 83 84 86 88 90 91 90 87 81 72 62 58 59 57 53 48 42 37 38 39 39 40 41 40 40 34 28 28 28 28 31 36 42 45 44 44 45 48 53 56 59 62 67 78 94 102 99 91 82 75 76 83 85 86 89 90 88 86 82 79 79 79 78 79 78 76 73 72 70 68
73 72 72 73 74 74 75 75 75 75 75 77 78 80 81 83 84 86 87 88 88 87 82 76 67 57 54 58 58 53 48 42 37 38 39 39 39 40 40 39 32 25 27 29 29 32 38 43 45 44 42 42 46 52 57 61 64 70 80 91 96 93 87 80 77 79 82 84 87 89 90 90 88 85 83 81 80 79 79 77 74 71 70 68 65
71 71 72 72 73 73 73 74 74 74 75 76 79 80 81 82 84 85 86 85 85 83 78 71 62 53 50 55 58 53 47 43 40 39 39 39 40 40 39 39 32 24 27 29 30 33 39 43 45 44 41 40 44 52 59 62 66 71 79 86 88 85 81 78 78 81 82 82 84 87 88 89 88 86 85 83 81 79 78 76 71 69 69 67 63
69 70 70 71 71 72 72 72 73 73 74 76 79 80 81 82 83 84 84 83 83 80 74 67 59 49 46 51 54 51 47 44 42 41 39 39 40 39 38 38 32 22 27 30 31 35 40 43 44 43 40 39 46 55 61 64 67 70 74 78 78 77 78 78 78 80 80 78 80 86 88 86 85 85 84 82 80 78 77 74 71 70 69 67 65
68 68 69 69 69 70 70 71 72 72 74 76 78 80 81 81 82 82 81 81 80 77 71 64 56 47 44 46 48 47 45 44 43 42 41 40 39 37 36 36 31 21 25 31 32 36 41 43 43 42 39 40 49 58 63 66 68 69 70 72 73 73 75 77 76 78 79 77 79 85 85 82 82 84 83 82 81 79 77 75 73 72 71 70 70
66 66 66 66 67 68 69 70 71 72 74 76 78 80 81 82 81 81 79 79 78 74 68 62 54 46 43 44 44 41 40 41 42 41 40 39 37 36 34 33 30 21 23 31 33 36 41 43 42 41 40 43 51 60 65 67 67 67 68 70 70 70 73 74 74 77 79 78 78 80 81 80 82 84 85 85 85 83 80 77 75 72 71 72 73
64 64 64 64 65 66 67 69 71 72 74 76 78 80 81 82 81 80 78 77 76 72 65 59 51 45 41 42 42 39 36 37 39 39 37 35 34 34 32 30 27 20 20 31 34 37 42 43 42 42 42 46 53 61 65 67 65 64 66 69 70 69 70 72 74 76 78 80 81 80 79 79 81 83 86 87 86 84 80 76 73 71 70 71 72
61 61 62 62 63 64 65 67 69 71 73 75 77 78 80 80 80 78 77 76 74 70 64 57 49 44 41 40 40 38 36 35 35 36 35 31 29 30 30 27 24 18 18 29 34 38 42 42 42 42 43 48 56 61 64 65 63 62 66 68 69 69 68 70 75 77 76 77 81 83 81 79 78 78 79 80 79 79 77 73 71 71 71 71 71
59 59 60 60 61 62 64 65 67 70 72 75 77 78 78 78 78 77 75 73 71 67 62 56 49 44 43 42 40 38 36 34 32 33 32 29 25 26 27 24 21 16 16 27 35 39 43 43 44 44 45 51 59 63 64 65 62 61 65 68 69 70 68 69 75 78 76 74 78 82 81 78 75 73 73 74 74 74 72 70 70 71 71 71 71
57 57 57 58 59 60 62 64 66 68 71 74 76 77 77 77 77 76 73 69 66 62 58 54 49 45 44 45 44 39 36 35 32 30 29 27 23 23 24 21 17 14 15 26 35 41 44 44 45 44 46 54 62 64 65 66 63 61 64 68 70 71 70 71 74 77 77 76 77 78 79 78 75 72 70 71 72 71 70 70 70 71 72 72 72
55 55 55 56 57 58 60 62 65 67 70 72 73 74 75 76 76 74 70 65 61 57 53 52 50 46 45 46 45 39 34 35 33 28 26 25 23 22 21 18 14 12 14 24 34 40 43 44 44 43 45 53 62 65 65 66 64 62 64 69 72 72 73 73 74 76 78 80 80 79 79 81 80 75 70 69 70 71 71 72 73 72 71 72 73
52 52 53 54 55 57 58 61 64 66 69 70 70 71 72 72 72 70 66 61 56 53 49 48 48 47 46 46 44 37 31 31 32 28 25 24 22 20 19 16 12 10 13 23 33 39 43 44 44 43 45 52 60 65 65 65 64 62 63 68 72 74 74 74 75 77 80 81 81 81 81 83 83 77 70 68 70 72 72 74 75 73 70 69 71
49 50 51 52 53 55 57 60 63 65 67 68 69 70 70 70 68 65 61 57 54 51 48 46 45 45 45 45 44 38 29 26 29 28 24 22 21 19 17 14 10 8 12 21 30 37 41 44 45 45 46 51 59 65 66 65 64 62 62 65 70 73 75 75 76 79 82 83 83 83 83 84 84 80 73 70 71 73 73 73 74 73 70 67 68
47 48 49 50 52 54 57 60 62 64 66 67 68 69 70 69 67 63 57 52 49 48 47 45 43 43 43 43 43 39 30 24 24 24 22 20 19 16 15 13 9 7 11 19 28 34 39 43 45 46 47 52 59 65 67 66 64 63 62 63 66 70 73 74 76 78 81 84 86 85 83 83 83 81 77 73 72 73 74 74 75 75 72 69 68
46 46 47 49 51 53 56 59 60 62 64 66 67 68 69 69 67 63 57 50 44 43 43 42 40 39 39 41 41 40 34 28 24 22 20 19 18 15 13 11 9 7 11 17 25 31 36 40 43 45 47 52 58 64 67 67 64 62 62 62 64 67 71 72 74 76 79 83 85 84 81 80 79 80 79 76 75 75 75 75 76 76 75 73 70
44 45 46 48 50 53 55 57 59 61 63 65 67 68 69 69 66 61 56 50 44 42 41 39 37 37 38 39 41 42 40 35 28 21 17 16 16 14 12 10 9 9 12 16 23 29 34 38 41 42 45 51 57 62 67 68 65 62 62 62 63 65 68 70 72 74 77 82 84 82 80 79 77 77 78 78 76 76 77 76 75 75 76 75 74
43 44 46 48 50 52 54 55 58 60 61 64 66 68 69 68 66 60 54 48 43 42 40 37 34 32 33 35 37 39 40 39 35 27 20 16 14 12 11 10 10 11 14 17 22 27 31 35 38 40 42 47 53 59 65 69 67 63 63 63 63 64 67 70 72 73 75 80 85 84 82 79 77 76 77 77 76 75 76 76 76 76 76 76 76
42 43 45 48 50 51 53 54 56 59 61 63 66 68 69 68 65 60 53 46 42 41 40 37 32 29 28 29 32 34 35 36 35 31 26 22 16 11 10 10 10 12 16 19 22 25 29 32 34 37 40 44 49 54 61 69 70 66 63 64 64 64 66 68 71 73 75 79 85 87 84 80 78 77 76 77 77 76 76 77 77 77 76 76 76
42 43 45 48 49 50 52 54 56 58 60 63 66 68 69 69 65 59 51 45 41 40 40 38 33 28 26 26 28 30 30 30 29 27 25 22 18 12 10 11 11 12 16 20 23 25 27 30 32 33 36 41 46 50 57 66 72 69 66 65 65 64 65 66 69 72 75 78 83 87 86 84 83 81 78 78 79 79 78 77 78 78 78 76 74
41 43 45 47 49 50 51 53 55 57 60 63 66 68 69 68 65 59 50 43 39 39 40 39 34 29 26 24 25 27 28 27 26 23 20 19 17 14 11 12 13 13 15 19 24 26 27 28 30 31 32 36 43 48 54 63 72 73 68 66 66 65 65 65 66 70 76 80 84 87 88 88 87 85 81 79 80 80 79 78 77 78 78 77 75
41 43 45 47 49 50 52 53 55 57 60 63 66 69 70 69 66 59 50 42 38 38 39 39 35 30 27 24 24 25 27 27 26 22 17 15 15 14 13 13 15 16 16 18 22 27 29 29 29 30 31 33 39 45 51 60 71 75 71 68 67 66 66 66 66 69 75 81 85 88 90 91 90 87 84 82 81 81 80 79 78 77 77 77 76
42 43 45 47 49 50 52 53 55 57 60 63 66 68 70 69 66 59 50 42 37 37 38 38 35 31 27 24 23 24 25 26 27 25 21 16 13 12 13 14 15 17 18 19 21 25 29 31 31 31 32 33 36 42 49 57 68 75 74 69 67 67 67 67 67 69 74 81 84 87 89 91 90 88 86 83 82 82 80 79 79 79 78 78 76
43 44 46 47 49 51 52 54 56 58 61 63 66 68 70 69 66 59 50 41 36 35 37 37 35 31 27 25 24 23 23 24 26 27 25 19 14 12 12 14 15 16 18 20 22 25 29 32 32 32 33 34 35 40 47 55 65 74 76 72 68 68 68 67 67 68 73 80 84 86 87 87 86 85 85 83 82 81 79 77 77 77 77 77 76
44 45 46 48 50 52 53 55 57 59 61 64 66 67 69 68 65 59 49 40 34 34 35 35 34 30 27 25 24 23 23 23 24 26 26 22 17 13 12 12 15 17 18 19 22 25 28 31 33 33 34 35 35 38 44 52 61 71 77 75 70 68 68 68 67 67 71 78 83 86 86 85 83 82 83 82 81 80 78 76 74 74 73 74 75
44 46 47 49 51 53 54 56 57 60 62 65 66 67 68 67 63 57 48 38 33 32 33 33 32 30 26 25 24 23 22 21 21 23 24 23 19 15 12 11 12 15 17 18 19 21 25 30 33 34 35 36 35 37 42 50 58 68 76 76 73 69 67 68 68 67 68 73 80 84 86 86 84 82 82 81 79 78 76 74 73 72 71 71 72
45 47 48 50 52 54 55 56 58 60 63 65 66 66 66 65 61 54 45 37 32 31 31 31 31 29 26 23 23 22 21 20 20 21 21 22 21 17 14 12 11 12 15 17 19 20 22 26 31 34 35 36 36 36 40 47 56 65 73 76 73 70 68 68 69 68 67 69 74 79 83 85 85 84 83 82 80 77 75 74 72 72 72 70 69
46 48 49 51 53 55 56 57 59 61 64 66 66 66 65 62 57 51 43 35 30 29 29 28 29 28 26 23 22 21 20 19 19 19 19 19 19 18 15 12 11 11 12 14 18 20 21 24 28 32 34 36 37 37 39 45 53 62 70 74 73 70 68 68 69 69 68 67 69 73 77 82 84 85 84 82 80 76 75 75 74 73 72 71 69
47 49 51 52 54 55 56 57 59 62 64 66 66 65 63 59 53 47 40 34 29 28 27 27 26 26 25 23 21 20 20 19 18 18 17 16 17 17 16 13 12 11 11 11 15 18 20 22 26 29 31 34 36 36 39 43 50 58 67 73 73 70 68 67 67 69 69 67 66 68 72 77 82 86 86 83 80 77 75 76 76 74 72 71 70
48 50 52 53 55 56 56 58 60 62 64 65 65 63 60 55 48 42 38 33 29 27 27 25 25 25 24 23 21 20 19 18 17 17 17 15 14 15 15 14 11 10 11 11 12 15 19 21 24 26 28 30 32 33 36 41 47 55 64 71 72 70 68 67 66 68 69 68 68 68 70 73 79 84 86 86 84 81 79 77 77 75 74 73 72
49 51 53 54 55 56 57 58 61 63 64 64 63 60 56 50 44 39 36 32 29 27 26 25 23 23 23 23 21 20 19 18 17 16 16 15 14 13 13 13 11 9 10 11 11 14 18 21 24 25 27 28 28 29 32 37 43 51 61 68 70 69 68 67 66 67 68 68 69 70 71 72 76 80 84 86 85 83 81 80 78 77 76 75 75
50 52 53 54 55 56 57 59 61 62 63 62 60 57 52 46 39 36 35 32 28 27 26 25 23 22 22 22 21 20 19 18 17 16 15 16 15 13 12 11 10 9 8 9 11 12 16 20 23 25 27 29 30 30 30 33 39 47 56 64 68 68 68 68 67 66 67 68 69 71 72 73 75 78 81 83 84 84 83 82 81 80 78 77 77
Wind_Direction
301 300 300 300 302 304 304 302 302 303 305 307 308 308 309 309 310 312 313 313 313 313 314 314 315 314 314 313 312 311 310 310 309 309 308 307 307 307 307 307 305 301 292 279 265 260 257 253 249 247 246 246 245 243 241 238 235 233 226 217 211 205 201 200 199 199 203 206 207 211 214 214 214 213 211 211 211 210 207 202 205 211 210 209 209
300 299 299 300 303 305 303 302 302 304 306 307 308 308 309 309 311 312 313 313 313 314 315 315 315 315 314 313 312 311 311 310 310 309 308 307 307 306 307 306 303 295 285 272 261 258 256 253 250 249 249 247 245 242 239 236 234 230 225 217 209 205 201 197 196 197 201 205 207 208 211 211 213 212 209 209 209 209 206 197 195 203 206 208 211
298 299 299 301 304 304 302 302 303 305 307 307 307 308 309 310 311 312 313 313 314 315 315 315 315 315 314 313 312 312 311 311 310 309 308 307 306 306 307 304 297 289 278 267 259 255 253 252 250 250 250 247 244 241 237 234 231 228 223 216 209 205 202 197 195 196 197 201 204 207 208 207 208 209 207 208 207 208 209 204 198 199 203 207 212
298 298 300 302 304 302 301 302 304 305 306 307 308 309 309 311 312 312 313 314 314 315 315 315 315 315 314 313 313 313 312 312 310 309 308 306 306 306 306 300 291 282 273 264 256 252 251 251 251 251 251 247 243 239 235 232 229 225 221 216 208 205 203 198 195 196 197 198 201 204 206 206 206 209 209 209 208 208 211 211 207 204 204 208 212
298 299 300 302 302 301 301 302 304 305 306 307 308 309 310 311 312 313 314 314 315 315 315 315 314 314 314 314 314 314 313 312 310 308 308 306 306 306 303 295 285 277 270 261 254 251 250 251 253 253 250 245 241 237 233 230 227 223 219 215 209 205 204 200 197 197 198 199 201 203 205 206 207 210 212 211 209 209 211 212 212 211 212 213 213
298 300 301 302 301 300 301 302 304 305 306 307 308 310 311 312 313 314 315 315 315 315 315 315 314 315 315 315 315 314 313 311 310 309 308 306 306 304 299 292 283 275 267 258 252 251 252 255 258 253 245 240 237 234 231 227 223 220 217 214 209 206 204 202 198 197 198 200 202 203 205 207 208 210 211 211 210 209 210 210 212 214 215 213 214
299 300 301 301 299 299 301 302 304 305 306 307 309 310 312 313 314 315 315 315 315 315 315 315 315 315 316 316 316 314 312 311 311 310 307 305 304 301 296 290 283 274 264 255 253 253 255 259 259 248 238 235 234 232 229 225 220 217 215 213 210 207 205 202 199 198 198 198 200 203 205 207 208 209 210 211 210 210 209 208 208 210 211 213 215
300 301 301 300 299 299 301 303 304 305 306 308 310 311 312 314 315 316 316 316 316 315 315 315 316 316 317 317 316 314 313 313 311 309 306 304 303 299 295 290 282 271 261 256 256 257 260 263 256 241 233 233 234 233 230 223 217 214 214 213 211 208 205 202 199 197 197 197 198 202 205 207 207 206 208 210 210 209 207 206 205 206 209 212 212
300 301 300 299 299 300 302 303 304 305 307 309 311 312 313 314 315 316 316 316 315 315 315 316 317 318 318 317 315 314 315 314 311 308 305 304 302 298 295 291 280 268 261 259 261 262 265 263 251 237 233 234 235 234 229 220 215 213 212 213 211 208 205 202 198 196 196 196 198 201 204 206 206 203 203 208 211 209 204 203 204 205 208 210 210
300 300 299 298 299 300 302 303 305 306 308 310 311 313 314 315 316 316 316 316 315 315 316 317 318 319 318 317 316 316 316 313 309 307 306 305 302 299 296 290 278 268 266 266 267 270 270 261 246 237 236 237 235 232 225 218 213 211 211 212 211 208 205 201 196 194 195 196 198 201 203 205 203 200 200 205 210 209 204 202 204 207 209 210 212
301 300 299 298 299 301 302 304 306 307 309 311 312 314 315 316 317 316 316 316 316 316 317 318 319 319 318 317 317 317 315 310 307 307 307 305 303 300 296 290 278 271 271 272 274 276 271 257 244 240 240 238 232 225 219 214 211 210 210 212 211 208 204 199 194 192 195 196 199 202 202 202 201 199 198 201 205 206 204 203 206 209 211 211 212
302 300 299 299 299 301 303 305 307 308 309 311 313 314 315 316 317 317 316 316 316 317 318 319 320 320 318 318 318 316 313 308 307 309 307 305 304 301 297 292 283 277 276 279 280 278 268 252 244 243 240 232 223 216 212 210 209 209 209 211 211 207 203 198 192 190 193 196 199 201 199 197 198 197 196 197 201 203 204 206 208 210 213 213 213
303 300 299 299 300 302 304 306 307 308 310 312 314 315 316 317 317 317 317 317 317 318 319 320 321 319 318 318 318 315 311 308 309 310 309 306 304 301 298 295 289 284 283 285 283 274 259 248 245 242 232 221 213 209 207 207 207 207 208 210 210 206 202 196 191 189 192 194 198 200 197 195 196 196 194 195 199 201 202 206 208 210 212 214 214
303 301 299 299 300 302 305 306 308 309 311 313 314 316 316 317 317 317 317 318 318 319 320 321 320 319 319 319 318 315 311 310 310 311 310 307 304 301 299 296 293 290 291 291 282 266 252 247 244 233 218 210 206 204 204 204 205 206 209 211 209 204 199 195 190 189 192 194 197 199 198 195 194 194 194 196 199 201 201 204 208 211 212 214 214
304 301 299 300 301 303 305 307 308 310 312 313 315 316 316 317 317 318 318 319 320 321 321 321 321 320 320 320 318 314 312 312 312 312 310 308 305 301 299 297 295 296 297 292 276 258 251 247 235 218 207 204 202 201 202 203 205 208 211 212 207 200 196 192 189 189 192 196 198 200 200 198 194 193 197 199 200 201 202 205 209 211 211 211 211
304 302 300 299 301 303 305 307 309 311 312 314 315 315 316 317 317 318 319 320 321 322 322 321 321 321 322 320 317 315 315 314 314 313 311 308 305 301 298 298 299 299 298 288 268 256 252 240 220 206 203 202 200 200 203 205 209 212 213 211 203 196 192 190 189 190 194 197 200 201 203 203 200 199 202 204 203 202 203 205 208 209 209 209 209
304 303 300 299 301 303 305 307 309 311 312 313 314 315 316 317 318 319 320 321 322 323 323 322 322 323 322 321 319 318 319 317 316 313 311 308 305 302 300 301 301 299 293 280 262 254 248 228 210 202 201 200 200 202 206 209 212 213 212 207 198 192 189 189 189 191 194 198 201 204 205 207 207 206 206 206 206 205 205 206 207 207 208 208 207
304 302 299 299 300 302 304 307 309 311 312 313 314 316 317 318 318 320 321 322 323 324 323 323 323 324 323 321 320 321 321 319 316 314 312 309 305 303 303 303 301 295 285 271 258 251 238 218 206 202 201 201 203 207 210 213 213 210 206 200 193 188 187 189 189 190 193 197 201 204 206 208 210 210 208 207 208 208 207 207 207 207 207 207 207
303 301 299 299 300 302 304 306 308 310 312 313 314 316 317 318 319 320 322 323 324 324 323 324 325 325 323 321 322 322 321 319 316 315 313 309 305 304 305 305 302 290 276 263 253 245 230 214 206 204 203 204 208 211 212 211 208 203 199 193 187 185 187 190 191 191 193 196 199 200 202 204 205 206 206 207 209 209 207 207 207 206 206 207 208
302 300 298 298 299 301 303 305 307 310 312 313 314 316 317 318 320 321 323 325 325 324 324 325 327 325 323 322 323 323 322 320 317 316 314 310 306 305 305 307 302 286 268 256 247 239 225 212 207 206 207 209 212 212 210 205 199 195 192 188 185 185 189 193 194 193 193 194 196 198 199 201 202 204 206 209 211 210 207 207 207 206 206 207 208
301 299 298 298 298 300 302 304 307 310 312 313 315 316 317 319 320 322 324 326 326 324 325 327 327 326 324 324 324 324 323 321 318 316 313 311 310 308 307 308 302 280 259 249 241 233 221 211 208 209 211 213 214 210 204 198 192 188 188 187 187 189 193 196 196 193 192 195 198 202 205 207 208 209 209 209 210 209 207 206 204 204 206 207 207
300 298 297 298 298 300 301 304 307 310 312 313 314 315 317 319 321 323 326 327 326 325 325 327 327 325 325 325 324 324 322 319 317 315 313 313 314 312 310 310 303 274 250 242 236 228 218 210 207 210 213 215 212 205 197 192 187 184 185 188 189 191 195 196 195 192 192 195 199 203 207 210 210 209 207 207 207 206 205 204 201 202 206 207 206
298 297 297 297 298 299 301 304 307 309 311 313 314 315 317 320 322 325 327 327 327 326 326 328 327 324 325 325 324 322 320 317 316 315 314 315 316 315 313 313 305 272 241 236 232 224 216 209 207 209 212 212 206 198 193 189 184 182 185 188 190 193 196 196 193 191 191 194 197 199 201 204 205 204 204 204 205 203 201 201 199 201 206 207 206
297 296 297 297 298 300 302 305 307 309 311 313 314 315 318 320 323 326 327 328 328 327 327 328 326 324 325 326 324 321 318 315 314 315 315 316 317 317 315 313 307 274 235 229 228 221 213 207 206 208 209 206 197 192 190 188 184 183 185 188 191 194 195 193 190 189 190 193 195 194 195 197 198 199 201 203 203 201 200 200 200 203 206 206 206
296 296 296 297 299 301 303 305 307 309 311 312 314 316 318 321 324 327 328 329 329 328 328 328 326 323 326 328 325 320 316 313 313 315 316 316 318 319 317 314 310 281 233 222 223 217 210 205 203 205 206 201 192 188 187 186 185 184 186 189 191 193 193 191 188 188 190 194 195 193 192 193 195 197 201 203 201 201 201 201 202 204 204 204 205
295 296 296 298 300 301 303 305 307 309 311 312 315 317 319 322 326 328 330 331 331 329 329 328 325 322 326 331 328 322 317 313 312 314 316 317 318 321 321 316 312 289 233 216 216 213 207 203 202 202 202 197 190 186 185 185 185 186 187 189 190 191 191 189 187 188 192 196 197 194 191 193 196 197 198 199 198 199 200 201 201 203 204 204 205
295 295 297 298 300 302 303 305 307 309 311 313 316 318 321 324 327 329 331 332 332 330 329 328 324 322 326 332 332 328 321 315 312 312 316 318 320 323 323 318 313 294 235 211 209 208 204 201 200 201 199 193 188 186 184 184 185 186 188 189 189 190 191 189 187 189 192 195 196 194 191 194 197 196 194 194 196 198 200 201 202 202 203 204 205
294 295 297 298 300 302 303 305 307 310 312 315 317 319 322 325 328 330 332 333 332 330 329 329 325 322 325 331 334 332 326 320 315 312 316 321 323 324 324 319 314 296 236 208 204 203 201 200 200 200 196 191 187 186 185 184 185 187 189 190 190 191 191 189 188 190 192 193 193 193 193 195 197 196 194 194 195 197 198 200 202 203 203 204 205
293 295 296 299 300 302 304 306 309 311 314 316 319 321 324 327 329 331 333 334 332 330 330 330 327 324 326 332 335 331 324 321 318 313 315 323 328 327 325 320 313 296 238 207 201 199 198 199 200 199 195 189 187 186 185 184 185 188 190 191 191 191 191 190 190 192 194 195 194 195 197 197 196 194 194 194 195 196 197 199 201 204 205 205 205
292 294 297 299 301 302 305 307 310 313 315 318 321 324 327 329 331 333 333 333 332 330 329 329 327 325 327 333 336 334 325 320 319 315 315 323 330 330 326 319 312 295 242 209 199 197 196 198 201 200 195 190 188 187 184 183 185 188 191 192 192 191 191 191 192 195 198 200 200 201 203 203 200 196 193 193 194 195 196 199 202 205 206 206 206
292 295 297 299 301 303 306 309 312 314 317 319 323 326 330 332 333 333 332 332 331 329 328 327 326 325 328 331 335 338 331 322 318 315 314 319 327 333 330 320 309 293 247 212 199 196 196 198 201 201 196 192 190 188 185 184 185 189 192 192 192 192 192 193 194 197 200 202 203 205 207 208 207 201 196 194 195 195 196 200 203 205 206 207 207
293 295 297 299 301 304 308 311 314 316 318 321 324 328 331 334 335 334 331 329 329 328 327 326 324 324 327 329 332 336 334 323 316 314 313 314 318 329 331 320 306 287 246 215 201 196 195 198 201 202 198 194 192 190 187 185 186 189 192 193 192 192 193 194 195 197 198 201 204 207 208 209 208 204 199 197 197 195 196 200 203 205 206 208 209
293 295 297 299 302 306 309 313 316 318 320 323 326 329 332 335 336 335 331 328 327 327 326 325 323 321 324 329 331 332 332 327 318 314 313 311 310 319 327 320 301 274 240 217 204 198 196 198 201 202 199 196 194 192 189 187 188 190 193 194 194 193 194 195 196 196 198 200 204 206 207 207 207 205 201 198 198 198 198 200 203 205 207 208 209
293 295 297 300 304 308 312 315 317 320 322 324 328 331 334 336 337 336 332 329 326 325 324 323 322 320 323 328 330 329 329 331 325 318 313 308 304 307 316 313 295 258 230 217 208 201 199 199 202 203 201 198 196 195 192 189 189 191 194 196 196 194 194 195 196 196 198 200 202 204 205 206 207 206 202 199 199 200 200 201 204 206 208 208 209
293 295 298 302 306 310 313 316 319 322 324 327 330 333 335 337 337 336 333 329 326 325 323 321 320 320 321 325 330 330 328 330 332 329 321 313 305 300 302 301 284 245 219 215 212 207 203 203 204 205 203 200 199 198 195 192 190 192 194 197 199 197 195 196 196 196 197 199 200 201 203 204 205 205 204 202 201 202 202 203 205 207 209 211 210
293 296 300 304 307 311 315 318 321 324 326 329 332 335 337 338 338 336 333 329 327 326 324 322 321 321 322 326 331 332 329 327 327 329 324 313 303 296 290 286 272 240 216 211 212 211 208 208 208 209 207 203 202 201 197 194 192 193 195 198 200 199 197 196 196 196 196 198 199 200 202 203 203 204 205 204 203 203 204 204 206 209 212 214 214
294 297 302 306 310 313 317 320 323 325 328 331 335 337 338 338 338 336 332 328 327 326 324 321 320 320 322 323 326 328 328 326 326 328 329 323 310 294 280 272 260 239 221 213 212 212 211 212 212 212 210 207 205 204 200 196 194 195 196 198 201 202 199 197 196 196 197 198 199 201 202 202 203 204 204 204 203 204 204 205 207 210 214 216 217
296 300 304 308 312 315 319 322 324 327 330 333 336 338 339 339 338 335 331 327 325 325 324 320 316 315 316 316 318 323 328 330 328 325 324 323 317 298 274 263 255 240 226 218 215 214 213 213 214 215 213 210 208 207 203 198 195 196 198 199 202 204 202 200 198 197 197 197 199 200 201 202 203 204 204 204 204 204 204 206 208 211 214 217 218
298 302 306 310 313 316 319 322 325 328 330 334 336 339 340 340 338 334 330 325 323 323 323 320 314 311 312 312 314 318 325 328 325 318 312 311 311 299 271 255 252 245 233 224 220 218 217 216 216 217 216 214 211 209 205 200 197 197 199 200 202 205 205 203 200 199 198 197 198 200 201 202 205 206 206 205 205 205 206 208 210 212 214 217 219
300 304 307 311 314 317 320 322 325 328 330 333 336 338 340 340 338 334 329 324 321 321 322 320 314 310 309 308 309 314 321 326 326 320 310 305 303 295 273 254 248 247 241 232 226 223 221 220 220 220 220 218 215 212 208 203 199 198 199 201 202 205 207 207 204 201 199 198 197 198 200 202 205 208 208 207 207 208 208 209 211 213 215 217 219
301 304 308 311 314 317 319 322 324 327 329 332 335 337 339 339 338 333 328 323 320 319 321 320 315 310 309 308 308 314 321 327 330 328 318 303 294 287 276 260 249 246 245 239 232 227 224 223 223 223 224 222 219 215 212 206 201 199 199 201 202 205 207 208 206 203 201 198 197 198 200 202 205 208 209 209 209 210 211 210 210 212 214 216 217
301 305 308 311 314 316 318 320 323 326 328 330 333 336 338 338 337 333 328 323 319 318 320 320 317 312 309 309 309 314 320 327 332 334 330 317 299 284 273 261 251 247 245 242 237 232 227 224 223 224 225 226 223 218 215 209 204 201 200 201 203 205 207 208 207 205 202 200 198 198 201 203 206 208 209 210 211 212 214 213 211 211 213 215 216
302 305 308 311 313 315 317 319 322 324 326 328 331 333 336 337 336 333 327 322 318 317 318 320 319 314 310 309 309 311 317 324 330 334 334 327 312 291 271 257 248 246 247 245 241 235 229 225 223 223 225 227 226 222 217 213 207 204 202 202 203 205 207 208 208 206 204 202 200 200 202 205 207 208 209 211 213 214 214 215 214 214 215 216 217
303 305 308 310 312 314 316 318 320 322 324 326 329 331 334 335 335 332 327 321 318 315 316 319 319 315 311 310 309 310 315 320 325 330 334 332 323 307 286 264 248 243 245 245 241 235 228 224 222 222 224 226 228 225 220 215 210 206 204 203 204 206 207 208 208 207 206 205 203 202 203 205 207 208 210 212 213 214 214 216 216 217 219 220 219
303 305 308 310 311 313 315 317 318 320 322 325 327 330 332 334 333 330 325 320 317 314 314 317 320 316 311 310 309 308 309 312 316 324 332 335 329 317 300 281 260 245 241 239 233 227 223 222 222 222 223 225 227 227 223 218 213 208 205 204 205 206 207 208 208 207 207 206 205 204 205 206 207 208 210 211 212 213 215 216 218 220 222 223 223
303 305 308 309 311 313 314 315 317 319 321 323 326 328 330 332 331 328 323 319 316 314 313 316 319 318 313 309 308 307 306 307 312 319 327 333 333 325 309 292 276 256 243 236 229 222 220 220 221 222 223 224 225 226 223 219 215 209 205 204 205 206 207 208 209 208 208 207 206 205 205 206 207 209 210 211 213 214 215 216 218 221 223 224 225
303 306 308 309 311 312 313 315 317 318 321 323 325 327 329 330 329 325 321 318 315 313 312 315 318 319 315 309 307 307 306 305 307 314 319 326 331 332 322 305 287 270 253 239 231 225 222 221 222 223 222 223 224 224 222 219 216 211 206 204 204 205 207 208 210 210 209 208 207 206 206 206 207 209 211 212 212 213 215 217 218 220 223 225 226
304 307 308 309 310 312 313 315 316 318 320 322 324 326 328 329 327 322 319 316 313 311 311 313 316 318 316 310 305 306 306 304 303 306 311 317 326 332 332 321 300 280 263 245 230 223 221 221 222 222 221 221 222 222 220 217 216 212 207 204 204 205 206 208 210 211 211 210 209 208 207 206 206 208 211 213 213 214 215 217 219 220 223 225 225
305 307 308 309 310 312 314 315 316 318 320 322 324 325 326 327 324 319 316 315 312 309 309 310 313 317 317 312 305 302 303 304 302 301 304 311 319 325 328 328 315 291 273 255 234 220 216 219 221 221 221 221 221 220 218 215 214 212 208 205 204 205 206 208 210 212 213 212 211 210 209 208 207 208 209 212 214 215 216 217 219 220 222 223 224
306 307 308 309 311 313 314 315 317 319 321 322 323 324 325 324 321 317 314 313 309 307 307 308 310 313 316 313 307 301 300 302 303 302 303 306 311 314 319 325 326 310 285 266 246 225 216 217 221 223 223 222 222 221 218 215 213 211 209 206 205 205 206 207 209 211 212 213 212 211 211 211 210 210 210 212 214 216 216 217 218 220 221 222 223
306 307 308 310 311 313 314 315 317 319 321 322 323 323 323 322 318 314 313 312 307 304 305 306 307 309 313 313 309 303 298 298 300 300 299 300 303 305 308 316 325 324 303 277 258 237 221 218 220 223 224 222 221 220 219 217 214 212 210 208 207 206 206 207 208 209 210 211 212 212 212 213 213 212 212 212 213 214 214 215 217 220 221 222 223
Height
5572 5567 5561 5555 5549 5543 5536 5530 5523 5518 5513 5508 5503 5498 5492 5486 5480 5475 5469 5463 5457 5451 5445 5438 5432 5427 5421 5415 5408 5401 5394 5388 5381 5374 5366 5359 5353 5347 5342 5336 5331 5327 5324 5323 5325 5325 5328 5332 5336 5340 5341 5344 5348 5352 5356 5361 5366 5370 5375 5380 5386 5396 5407 5418 5433 5449 5460 5469 5481 5490 5498 5506 5514 5522 5534 5544 5552 5561 5567 5569 5573 5579 5586 5593 5597
5563 5558 5552 5546 5540 5533 5527 5521 5514 5509 5504 5499 5493 5488 5482 5476 5470 5465 5460 5453 5447 5440 5434 5428 5422 5415 5410 5403 5395 5388 5380 5373 5366 5359 5352 5345 5338 5333 5328 5321 5316 5313 5312 5312 5314 5315 5318 5323 5327 5330 5331 5333 5338 5342 5347 5353 5357 5363 5368 5373 5380 5389 5399 5412 5425 5439 5451 5461 5472 5482 5489 5496 5504 5514 5524 5534 5544 5552 5557 5558 5563 5571 5580 5587 5591
5554 5548 5542 5536 5531 5524 5518 5511 5506 5500 5496 5490 5484 5478 5472 5467 5461 5455 5450 5444 5437 5430 5423 5418 5411 5405 5398 5391 5383 5375 5367 5358 5350 5343 5337 5329 5323 5318 5313 5307 5302 5301 5301 5302 5304 5305 5309 5314 5318 5321 5321 5323 5328 5333 5338 5344 5349 5355 5361 5366 5373 5381 5391 5403 5415 5427 5440 5451 5462 5473 5480 5487 5497 5507 5517 5527 5536 5544 5548 5551 5556 5564 5571 5578 5585
5544 5539 5533 5527 5521 5515 5509 5503 5497 5492 5487 5481 5476 5470 5464 5458 5452 5446 5440 5434 5428 5421 5414 5407 5401 5394 5386 5378 5371 5362 5353 5344 5336 5328 5321 5313 5307 5303 5299 5294 5291 5290 5291 5292 5294 5296 5300 5305 5309 5311 5311 5314 5319 5323 5328 5334 5340 5346 5353 5359 5365 5373 5382 5393 5404 5415 5429 5440 5451 5463 5472 5480 5490 5501 5511 5519 5527 5535 5540 5544 5550 5557 5563 5571 5577
5535 5529 5524 5518 5512 5506 5500 5494 5489 5484 5479 5473 5467 5462 5455 5449 5443 5436 5431 5425 5418 5411 5405 5397 5390 5384 5375 5367 5358 5349 5340 5330 5322 5314 5306 5298 5292 5288 5286 5283 5281 5281 5282 5283 5285 5288 5291 5296 5299 5301 5302 5305 5310 5313 5318 5325 5330 5337 5344 5351 5358 5364 5373 5384 5393 5404 5417 5429 5441 5453 5463 5473 5483 5493 5503 5511 5518 5525 5531 5537 5543 5550 5557 5564 5570
5525 5520 5515 5509 5503 5497 5491 5486 5481 5476 5471 5465 5460 5454 5447 5440 5434 5428 5421 5415 5409 5402 5395 5387 5380 5372 5364 5355 5346 5336 5327 5317 5307 5299 5291 5284 5279 5276 5274 5273 5272 5272 5273 5274 5276 5279 5282 5286 5289 5290 5292 5296 5301 5304 5309 5315 5320 5327 5335 5342 5349 5356 5365 5375 5384 5395 5408 5421 5433 5445 5455 5465 5475 5484 5495 5504 5511 5517 5522 5530 5537 5545 5551 5557 5562
5516 5511 5505 5500 5494 5488 5483 5477 5473 5468 5463 5457 5451 5445 5438 5431 5425 5419 5412 5405 5399 5392 5385 5378 5369 5361 5352 5343 5333 5322 5313 5304 5294 5286 5278 5272 5269 5266 5265 5264 5264 5264 5265 5266 5268 5271 5274 5276 5278 5280 5283 5287 5292 5296 5300 5305 5310 5317 5325 5332 5339 5346 5355 5365 5375 5387 5402 5415 5426 5437 5448 5458 5467 5477 5487 5497 5505 5511 5518 5524 5531 5537 5544 5549 5556
5507 5501 5496 5490 5485 5480 5474 5469 5464 5459 5454 5449 5442 5435 5429 5422 5416 5409 5403 5396 5389 5382 5375 5367 5359 5350 5339 5329 5319 5309 5299 5291 5282 5274 5267 5263 5260 5258 5257 5257 5256 5256 5257 5259 5261 5263 5265 5266 5268 5271 5274 5278 5283 5287 5291 5296 5300 5307 5315 5322 5328 5336 5346 5356 5366 5379 5394 5407 5419 5432 5442 5451 5459 5470 5480 5488 5493 5499 5509 5518 5527 5534 5539 5545 5552
5498 5492 5487 5482 5477 5471 5466 5461 5455 5451 5446 5440 5434 5427 5420 5414 5407 5400 5393 5387 5380 5372 5364 5356 5347 5338 5327 5316 5306 5296 5287 5279 5270 5264 5259 5256 5253 5251 5250 5249 5248 5249 5250 5252 5253 5254 5255 5257 5259 5262 5265 5269 5273 5277 5281 5286 5291 5297 5305 5312 5318 5328 5338 5347 5359 5373 5385 5398 5412 5425 5434 5443 5452 5461 5470 5478 5485 5493 5504 5513 5522 5531 5536 5541 5547
5489 5483 5478 5474 5469 5463 5458 5452 5447 5442 5437 5431 5425 5419 5412 5406 5399 5393 5385 5378 5371 5363 5355 5345 5335 5325 5315 5304 5294 5284 5275 5268 5261 5256 5252 5249 5246 5244 5243 5242 5242 5242 5243 5244 5245 5245 5246 5247 5249 5252 5255 5258 5262 5267 5272 5277 5282 5288 5296 5302 5309 5320 5330 5339 5352 5367 5379 5391 5404 5416 5426 5436 5444 5452 5462 5473 5482 5491 5500 5507 5514 5521 5525 5530 5538
5480 5475 5470 5465 5460 5455 5450 5444 5439 5434 5429 5423 5417 5410 5404 5398 5392 5385 5377 5370 5362 5353 5345 5335 5325 5314 5303 5293 5283 5273 5266 5259 5253 5249 5246 5242 5239 5237 5236 5235 5235 5236 5236 5236 5236 5236 5235 5236 5238 5241 5244 5247 5251 5256 5262 5268 5274 5280 5287 5293 5301 5312 5322 5332 5346 5360 5373 5386 5397 5408 5419 5430 5438 5447 5459 5470 5478 5485 5494 5501 5507 5512 5516 5522 5530
5472 5467 5462 5457 5452 5447 5442 5437 5432 5426 5421 5415 5409 5403 5396 5390 5384 5377 5369 5361 5353 5344 5335 5325 5315 5303 5292 5283 5273 5265 5258 5251 5246 5243 5240 5235 5232 5230 5229 5229 5229 5229 5229 5228 5227 5225 5224 5225 5227 5229 5232 5235 5240 5246 5253 5260 5265 5271 5278 5285 5294 5305 5315 5326 5339 5353 5366 5380 5390 5400 5412 5424 5434 5444 5454 5463 5471 5480 5488 5495 5501 5508 5514 5521 5528
5464 5458 5454 5449 5444 5439 5434 5429 5424 5419 5413 5408 5401 5395 5388 5382 5375 5368 5361 5352 5344 5335 5325 5315 5305 5294 5283 5274 5265 5257 5250 5244 5239 5236 5233 5229 5226 5224 5223 5223 5223 5222 5221 5219 5216 5214 5213 5214 5216 5218 5221 5225 5231 5238 5245 5252 5257 5264 5271 5278 5286 5297 5308 5320 5334 5347 5359 5372 5382 5393 5405 5418 5429 5441 5450 5458 5466 5474 5481 5488 5496 5504 5511 5519 5528
5455 5450 5446 5441 5437 5432 5426 5421 5416 5411 5406 5400 5393 5387 5380 5374 5367 5360 5352 5344 5335 5326 5316 5306 5296 5285 5274 5265 5256 5250 5243 5237 5233 5230 5226 5223 5220 5218 5218 5217 5216 5215 5213 5209 5206 5204 5204 5205 5206 5209 5213 5218 5225 5231 5238 5245 5252 5259 5265 5272 5280 5291 5303 5315 5329 5342 5354 5364 5376 5389 5401 5411 5424 5438 5448 5454 5462 5469 5477 5486 5494 5502 5510 5518 5526
5447 5442 5438 5433 5429 5424 5419 5414 5409 5403 5398 5392 5385 5379 5373 5366 5360 5352 5344 5335 5326 5317 5307 5297 5287 5276 5265 5256 5249 5243 5237 5231 5227 5224 5220 5217 5215 5213 5213 5212 5210 5207 5205 5201 5199 5197 5198 5198 5199 5203 5208 5214 5220 5227 5234 5241 5247 5254 5260 5267 5276 5287 5298 5311 5325 5338 5349 5360 5371 5385 5397 5406 5418 5431 5442 5450 5459 5469 5479 5490 5498 5503 5508 5512 5516
5439 5434 5430 5425 5421 5416 5412 5407 5401 5396 5390 5385 5378 5372 5366 5359 5353 5345 5337 5327 5317 5308 5298 5287 5277 5267 5256 5248 5242 5237 5231 5225 5221 5219 5215 5212 5210 5209 5208 5206 5204 5201 5198 5195 5194 5193 5193 5193 5195 5199 5204 5210 5217 5224 5230 5237 5243 5250 5256 5263 5272 5283 5295 5308 5321 5334 5345 5356 5367 5379 5390 5402 5413 5423 5434 5445 5456 5466 5476 5482 5486 5490 5496 5501 5507
5432 5427 5422 5417 5413 5409 5404 5399 5394 5388 5383 5378 5372 5365 5359 5352 5346 5338 5330 5320 5310 5300 5289 5278 5267 5257 5247 5241 5236 5232 5226 5219 5216 5213 5211 5208 5206 5204 5203 5201 5199 5196 5193 5191 5190 5189 5189 5190 5192 5196 5201 5207 5214 5220 5225 5231 5237 5244 5251 5259 5269 5281 5294 5306 5317 5329 5340 5351 5361 5372 5383 5396 5407 5417 5428 5439 5449 5457 5461 5464 5470 5480 5489 5495 5501
5424 5419 5414 5410 5405 5401 5396 5392 5387 5381 5375 5370 5365 5358 5352 5345 5338 5330 5321 5312 5302 5291 5281 5271 5259 5248 5239 5233 5230 5226 5221 5215 5210 5208 5206 5203 5201 5200 5198 5196 5194 5190 5188 5187 5186 5186 5187 5188 5192 5195 5200 5205 5210 5215 5221 5226 5232 5238 5246 5255 5267 5281 5293 5304 5314 5325 5335 5345 5356 5367 5378 5390 5400 5411 5421 5431 5439 5444 5450 5458 5470 5479 5485 5490 5498
5416 5411 5406 5401 5397 5393 5389 5384 5379 5374 5368 5362 5357 5351 5345 5338 5331 5323 5313 5303 5293 5282 5272 5263 5252 5241 5233 5227 5224 5220 5215 5211 5206 5204 5202 5199 5196 5195 5193 5191 5188 5185 5183 5183 5183 5184 5186 5188 5191 5195 5199 5203 5206 5210 5214 5220 5226 5234 5242 5252 5266 5281 5292 5301 5311 5321 5330 5340 5351 5362 5374 5384 5393 5404 5415 5423 5430 5438 5448 5459 5469 5475 5480 5489 5496
5408 5403 5398 5393 5389 5385 5382 5377 5372 5367 5361 5355 5349 5343 5337 5331 5324 5316 5307 5296 5285 5274 5264 5255 5246 5237 5228 5222 5218 5214 5210 5206 5203 5200 5197 5194 5191 5190 5188 5185 5182 5180 5179 5179 5180 5182 5185 5188 5191 5195 5198 5201 5203 5206 5210 5216 5223 5231 5240 5252 5267 5280 5289 5297 5307 5317 5325 5334 5345 5357 5368 5378 5388 5399 5408 5416 5425 5435 5445 5454 5462 5469 5477 5484 5489
5400 5395 5390 5386 5381 5378 5374 5369 5365 5360 5354 5348 5342 5336 5330 5324 5317 5309 5301 5290 5278 5267 5257 5249 5241 5233 5225 5218 5213 5209 5205 5202 5199 5196 5193 5190 5187 5184 5182 5180 5177 5175 5175 5176 5177 5179 5182 5186 5190 5193 5197 5199 5201 5204 5209 5215 5222 5230 5240 5254 5267 5277 5285 5294 5304 5312 5320 5330 5341 5352 5363 5373 5383 5393 5402 5411 5420 5430 5438 5446 5455 5464 5471 5477 5484
5392 5387 5382 5378 5374 5370 5366 5362 5358 5353 5347 5341 5335 5329 5323 5317 5310 5302 5294 5284 5272 5261 5251 5243 5236 5230 5223 5215 5209 5205 5201 5197 5195 5193 5189 5186 5183 5179 5177 5174 5171 5170 5171 5172 5174 5176 5179 5183 5187 5190 5194 5197 5200 5204 5210 5216 5223 5232 5243 5254 5264 5274 5283 5291 5299 5308 5317 5327 5338 5348 5359 5368 5377 5387 5397 5406 5415 5424 5433 5442 5451 5459 5466 5474 5483
5384 5380 5375 5370 5367 5363 5359 5355 5351 5346 5340 5334 5327 5322 5317 5311 5304 5296 5287 5278 5267 5255 5246 5239 5232 5227 5221 5214 5206 5201 5197 5193 5191 5189 5186 5183 5180 5175 5172 5169 5166 5166 5167 5169 5170 5173 5176 5180 5184 5188 5191 5194 5199 5205 5212 5219 5226 5235 5244 5254 5264 5273 5280 5287 5295 5305 5315 5324 5334 5344 5354 5363 5372 5382 5391 5401 5410 5419 5429 5439 5447 5454 5462 5471 5480
5376 5372 5367 5363 5360 5356 5352 5348 5344 5339 5334 5327 5321 5315 5310 5305 5298 5289 5280 5271 5260 5250 5241 5234 5228 5223 5219 5212 5204 5198 5193 5190 5187 5185 5183 5180 5177 5172 5168 5165 5162 5161 5163 5165 5167 5170 5173 5178 5183 5187 5190 5193 5197 5204 5212 5221 5228 5236 5245 5255 5263 5271 5277 5284 5294 5303 5312 5321 5331 5340 5350 5360 5370 5380 5389 5399 5409 5419 5428 5436 5443 5449 5457 5466 5473
5369 5364 5360 5357 5353 5349 5345 5341 5336 5332 5326 5320 5314 5308 5302 5298 5291 5283 5274 5264 5253 5243 5235 5228 5223 5219 5215 5209 5202 5195 5190 5187 5184 5182 5179 5176 5173 5170 5166 5162 5158 5157 5159 5162 5164 5167 5171 5176 5181 5186 5189 5192 5196 5204 5213 5222 5230 5238 5246 5254 5262 5269 5276 5284 5292 5300 5309 5319 5329 5339 5350 5361 5371 5381 5390 5399 5408 5416 5423 5429 5434 5439 5447 5456 5463
5361 5357 5354 5350 5347 5342 5338 5333 5329 5324 5319 5313 5306 5300 5294 5289 5283 5276 5267 5257 5246 5237 5230 5224 5218 5214 5211 5206 5199 5193 5188 5184 5181 5179 5176 5173 5170 5166 5163 5159 5156 5154 5155 5159 5162 5165 5170 5175 5180 5185 5188 5191 5197 5205 5213 5223 5231 5238 5246 5253 5260 5268 5275 5282 5290 5299 5309 5319 5329 5340 5351 5362 5370 5377 5384 5391 5399 5406 5413 5419 5425 5432 5441 5449 5455
5354 5351 5347 5344 5341 5336 5332 5327 5322 5317 5312 5306 5300 5293 5286 5280 5274 5268 5259 5250 5240 5232 5225 5219 5213 5209 5206 5202 5197 5190 5186 5182 5179 5177 5174 5171 5167 5164 5160 5157 5154 5152 5153 5156 5160 5164 5169 5173 5178 5183 5187 5191 5196 5204 5213 5222 5230 5238 5246 5253 5259 5266 5273 5281 5290 5299 5308 5318 5328 5339 5349 5356 5362 5367 5373 5381 5389 5398 5406 5414 5421 5428 5436 5443 5450
5347 5344 5341 5338 5335 5331 5326 5322 5316 5310 5304 5299 5294 5288 5281 5273 5266 5259 5251 5241 5233 5226 5220 5214 5209 5203 5200 5197 5192 5187 5183 5179 5177 5174 5172 5169 5166 5162 5159 5156 5153 5151 5152 5155 5159 5163 5167 5172 5176 5181 5186 5190 5196 5203 5211 5220 5229 5237 5245 5252 5258 5265 5272 5280 5288 5297 5306 5315 5324 5333 5340 5346 5353 5361 5369 5377 5385 5392 5401 5409 5416 5423 5429 5435 5442
5341 5338 5335 5332 5328 5325 5321 5316 5312 5305 5298 5291 5285 5280 5275 5267 5259 5250 5241 5233 5225 5218 5212 5208 5203 5198 5195 5191 5187 5183 5180 5177 5174 5171 5169 5167 5164 5160 5157 5155 5152 5151 5152 5154 5158 5161 5165 5169 5172 5177 5183 5188 5194 5201 5208 5216 5225 5234 5243 5250 5256 5263 5270 5278 5287 5296 5305 5312 5320 5327 5334 5341 5349 5357 5366 5374 5381 5388 5396 5404 5410 5417 5423 5429 5437
5335 5332 5329 5326 5322 5319 5315 5310 5306 5301 5295 5287 5278 5270 5263 5257 5250 5242 5233 5226 5218 5211 5206 5202 5198 5194 5191 5187 5184 5180 5176 5173 5172 5169 5166 5164 5162 5159 5157 5154 5153 5152 5152 5154 5156 5160 5164 5167 5171 5176 5181 5186 5192 5199 5206 5213 5221 5229 5238 5245 5253 5261 5269 5277 5286 5294 5302 5310 5319 5327 5335 5341 5347 5354 5361 5369 5377 5384 5392 5400 5405 5411 5417 5424 5431
5328 5326 5323 5320 5317 5314 5310 5305 5301 5296 5290 5284 5277 5268 5258 5249 5241 5232 5225 5220 5214 5208 5203 5198 5195 5191 5188 5185 5183 5180 5175 5172 5169 5167 5164 5162 5161 5159 5156 5154 5153 5152 5152 5154 5157 5160 5164 5169 5172 5178 5184 5189 5194 5200 5206 5212 5219 5226 5234 5242 5250 5258 5267 5275 5284 5291 5299 5307 5316 5324 5332 5339 5346 5352 5359 5366 5373 5380 5387 5394 5400 5405 5413 5420 5426
5322 5320 5318 5315 5312 5309 5305 5300 5296 5290 5285 5279 5273 5267 5259 5249 5238 5228 5219 5213 5210 5206 5202 5197 5193 5189 5187 5183 5180 5178 5175 5171 5168 5165 5163 5161 5159 5158 5156 5154 5153 5153 5153 5155 5158 5161 5165 5169 5173 5178 5184 5190 5196 5202 5208 5214 5220 5226 5233 5240 5247 5255 5264 5272 5280 5288 5296 5304 5312 5320 5327 5335 5343 5350 5356 5362 5368 5375 5381 5387 5394 5401 5409 5415 5421
5316 5314 5312 5310 5307 5303 5299 5295 5290 5285 5280 5274 5268 5262 5256 5249 5240 5231 5220 5211 5205 5201 5199 5196 5192 5188 5185 5182 5178 5175 5174 5171 5167 5163 5161 5160 5158 5158 5157 5155 5154 5154 5154 5156 5159 5162 5166 5170 5173 5177 5182 5187 5193 5199 5206 5213 5219 5225 5231 5238 5245 5252 5260 5268 5275 5283 5291 5300 5309 5317 5324 5332 5339 5345 5351 5357 5364 5370 5375 5383 5392 5399 5404 5409 5415
5311 5309 5306 5304 5301 5298 5294 5290 5285 5279 5274 5268 5263 5257 5250 5243 5237 5230 5223 5215 5208 5201 5196 5194 5191 5187 5183 5180 5177 5174 5172 5170 5166 5163 5160 5158 5157 5157 5156 5155 5155 5154 5155 5157 5160 5162 5166 5170 5174 5177 5181 5185 5191 5196 5203 5210 5217 5223 5230 5236 5243 5249 5256 5263 5270 5278 5286 5295 5303 5312 5319 5326 5332 5339 5345 5351 5359 5365 5371 5379 5386 5392 5397 5403 5409
5305 5303 5301 5298 5296 5292 5288 5284 5279 5274 5268 5263 5257 5252 5245 5238 5232 5225 5219 5214 5209 5203 5198 5193 5190 5187 5183 5180 5176 5172 5168 5166 5165 5162 5159 5157 5156 5156 5156 5156 5155 5155 5156 5158 5160 5163 5166 5170 5174 5178 5181 5185 5190 5195 5201 5208 5215 5221 5227 5234 5241 5248 5254 5261 5268 5276 5283 5291 5298 5307 5314 5321 5328 5335 5341 5347 5354 5360 5367 5375 5381 5387 5393 5399 5405
5300 5297 5296 5293 5290 5287 5283 5279 5274 5269 5263 5258 5253 5247 5241 5234 5227 5221 5214 5209 5205 5201 5197 5193 5189 5185 5182 5178 5173 5169 5165 5162 5161 5160 5159 5156 5155 5154 5154 5155 5155 5156 5156 5158 5161 5163 5166 5170 5173 5177 5181 5185 5189 5193 5199 5206 5213 5220 5226 5232 5238 5245 5252 5260 5267 5274 5281 5288 5295 5303 5310 5317 5324 5331 5337 5343 5350 5356 5364 5372 5378 5384 5390 5395 5400
5294 5292 5290 5287 5284 5281 5278 5273 5269 5264 5258 5253 5248 5242 5236 5229 5222 5216 5211 5206 5202 5198 5195 5192 5189 5186 5182 5178 5174 5170 5166 5161 5157 5156 5155 5154 5153 5153 5153 5154 5155 5156 5157 5158 5161 5163 5166 5169 5172 5176 5179 5183 5187 5192 5197 5204 5210 5217 5224 5230 5236 5243 5250 5257 5264 5270 5277 5285 5292 5299 5306 5313 5320 5326 5332 5339 5346 5352 5360 5367 5373 5379 5384 5389 5395
5288 5286 5284 5281 5278 5276 5272 5268 5264 5259 5254 5249 5244 5238 5232 5225 5218 5212 5207 5203 5199 5196 5192 5190 5188 5186 5183 5180 5176 5173 5169 5164 5159 5156 5155 5154 5152 5152 5152 5153 5154 5155 5156 5158 5160 5163 5165 5168 5171 5174 5177 5181 5185 5189 5194 5201 5207 5213 5220 5227 5233 5240 5246 5253 5260 5266 5273 5280 5287 5294 5302 5309 5316 5321 5328 5334 5341 5348 5354 5361 5367 5373 5378 5382 5388
5282 5280 5278 5275 5273 5270 5266 5263 5258 5254 5249 5244 5239 5234 5227 5221 5214 5208 5203 5199 5196 5193 5190 5187 5185 5183 5181 5179 5176 5172 5170 5166 5163 5159 5156 5154 5152 5151 5151 5152 5153 5154 5155 5157 5159 5162 5165 5167 5170 5172 5175 5179 5182 5186 5191 5197 5203 5209 5216 5223 5230 5236 5243 5249 5255 5262 5268 5275 5282 5289 5297 5304 5310 5316 5323 5330 5336 5343 5350 5356 5362 5367 5372 5377 5384
5277 5275 5272 5270 5267 5264 5261 5258 5253 5249 5244 5240 5235 5230 5224 5218 5211 5205 5200 5196 5193 5190 5187 5184 5181 5180 5178 5176 5174 5171 5168 5165 5161 5158 5155 5153 5151 5150 5150 5150 5151 5152 5154 5156 5158 5160 5163 5166 5169 5171 5174 5177 5180 5184 5188 5193 5199 5205 5211 5218 5225 5232 5239 5245 5251 5258 5264 5270 5277 5284 5291 5298 5304 5311 5317 5325 5332 5338 5345 5351 5357 5363 5368 5374 5380
5272 5269 5267 5265 5261 5258 5256 5253 5248 5244 5240 5235 5231 5225 5219 5214 5208 5201 5196 5193 5190 5187 5184 5181 5178 5177 5175 5173 5171 5168 5165 5162 5159 5156 5153 5152 5150 5149 5148 5149 5150 5151 5152 5154 5156 5158 5160 5164 5167 5169 5172 5175 5177 5181 5185 5191 5196 5201 5206 5213 5220 5227 5234 5240 5247 5253 5260 5267 5273 5279 5286 5292 5298 5305 5312 5320 5327 5333 5339 5346 5352 5357 5363 5368 5373
5266 5264 5262 5259 5256 5254 5251 5247 5244 5240 5236 5231 5226 5221 5215 5210 5204 5198 5193 5190 5187 5184 5181 5178 5175 5174 5172 5170 5168 5166 5163 5161 5158 5155 5152 5150 5149 5148 5147 5147 5148 5149 5150 5152 5154 5156 5158 5161 5164 5166 5169 5172 5175 5178 5182 5187 5193 5198 5203 5209 5216 5223 5229 5236 5242 5249 5256 5263 5270 5276 5282 5287 5293 5300 5308 5315 5321 5326 5333 5339 5345 5351 5356 5361 5365
5261 5259 5256 5254 5251 5249 5246 5242 5239 5235 5231 5227 5222 5217 5211 5206 5201 5195 5190 5187 5184 5182 5179 5176 5173 5171 5169 5168 5166 5164 5162 5160 5157 5154 5152 5149 5147 5147 5146 5146 5146 5147 5148 5149 5151 5153 5155 5158 5160 5163 5166 5169 5172 5175 5179 5183 5189 5195 5200 5206 5213 5219 5225 5232 5238 5245 5252 5258 5265 5272 5278 5284 5290 5296 5302 5308 5314 5320 5326 5333 5339 5345 5349 5354 5358
5255 5253 5251 5248 5246 5243 5240 5237 5234 5230 5226 5223 5218 5213 5208 5203 5197 5192 5187 5184 5182 5179 5177 5174 5171 5169 5167 5165 5164 5162 5160 5159 5157 5154 5152 5149 5147 5145 5145 5144 5145 5145 5146 5147 5148 5149 5152 5154 5157 5160 5163 5165 5168 5172 5175 5180 5185 5191 5197 5203 5209 5215 5222 5228 5234 5241 5247 5253 5260 5266 5273 5280 5286 5292 5296 5302 5308 5314 5320 5326 5332 5338 5343 5347 5352
5250 5248 5245 5243 5241 5238 5235 5232 5229 5225 5222 5218 5213 5209 5204 5199 5193 5188 5184 5181 5179 5177 5174 5172 5169 5167 5165 5163 5162 5160 5159 5157 5156 5154 5151 5149 5146 5144 5143 5143 5143 5143 5144 5144 5145 5146 5149 5151 5154 5157 5159 5162 5165 5168 5172 5176 5181 5187 5192 5199 5205 5211 5217 5224 5230 5237 5243 5248 5254 5261 5267 5274 5281 5287 5292 5297 5303 5309 5315 5321 5326 5331 5336 5340 5345
5245 5243 5241 5238 5236 5233 5230 5227 5223 5220 5217 5213 5209 5205 5200 5195 5190 5185 5181 5178 5177 5174 5172 5170 5167 5165 5163 5161 5159 5158 5157 5155 5154 5153 5150 5148 5146 5144 5142 5142 5141 5141 5141 5142 5143 5144 5146 5148 5151 5153 5156 5159 5162 5165 5168 5172 5177 5182 5188 5195 5201 5207 5213 5219 5226 5233 5239 5244 5249 5255 5261 5268 5274 5280 5286 5292 5297 5303 5309 5315 5319 5324 5329 5333 5339
5240 5238 5235 5233 5231 5228 5225 5222 5219 5215 5211 5208 5204 5200 5196 5191 5187 5182 5178 5176 5174 5172 5170 5168 5165 5162 5161 5159 5157 5156 5155 5153 5152 5151 5150 5148 5146 5144 5142 5141 5140 5140 5140 5140 5141 5142 5144 5146 5148 5150 5153 5155 5158 5161 5164 5168 5172 5177 5184 5190 5197 5203 5209 5215 5221 5228 5234 5239 5245 5250 5255 5262 5268 5273 5279 5285 5290 5296 5302 5307 5311 5317 5322 5327 5332
5235 5233 5230 5228 5225 5222 5220 5217 5214 5210 5207 5203 5199 5195 5192 5187 5183 5179 5175 5173 5171 5169 5167 5165 5163 5161 5159 5157 5155 5154 5152 5151 5150 5150 5148 5147 5146 5143 5141 5140 5139 5138 5138 5138 5139 5140 5142 5143 5145 5148 5150 5152 5155 5157 5160 5163 5168 5173 5179 5186 5192 5198 5205 5210 5216 5222 5228 5234 5239 5244 5249 5255 5261 5267 5272 5278 5283 5289 5294 5299 5304 5309 5314 5318 5323
5229 5227 5225 5222 5220 5217 5214 5212 5209 5205 5202 5198 5194 5190 5187 5183 5179 5176 5172 5170 5168 5167 5165 5163 5161 5159 5156 5154 5153 5151 5150 5149 5148 5147 5146 5146 5145 5143 5141 5140 5138 5137 5137 5137 5137 5138 5140 5141 5143 5146 5147 5149 5152 5154 5156 5160 5164 5169 5175 5181 5188 5194 5200 5205 5211 5217 5222 5227 5233 5238 5243 5248 5254 5259 5265 5270 5275 5281 5286 5291 5296 5301 5306 5310 5315
5224 5222 5219 5217 5214 5212 5209 5206 5203 5200 5197 5193 5189 5185 5182 5179 5175 5172 5169 5167 5166 5164 5162 5160 5159 5156 5154 5152 5151 5149 5148 5147 5146 5145 5144 5144 5143 5142 5141 5139 5138 5137 5136 5136 5136 5136 5137 5139 5141 5144 5146 5148 5150 5152 5154 5157 5160 5165 5171 5177 5183 5189 5195 5200 5206 5211 5216 5221 5226 5231 5236 5241 5247 5252 5258 5263 5268 5273 5277 5282 5287 5292 5297 5302 5307
5219 5216 5214 5211 5209 5206 5203 5201 5198 5195 5191 5188 5184 5181 5177 5174 5171 5169 5166 5164 5163 5161 5159 5158 5156 5154 5152 5150 5148 5147 5146 5144 5143 5143 5142 5142 5141 5140 5140 5139 5137 5136 5135 5135 5135 5135 5135 5137 5139 5142 5144 5146 5148 5150 5152 5155 5158 5162 5167 5173 5178 5184 5189 5195 5200 5205 5210 5215 5220 5225 5229 5234 5240 5245 5250 5255 5260 5265 5270 5275 5279 5284 5288 5293 5298